Time,TemperatureF,DewpointF,PressureIn,WindDirection,WindDirectionDegrees,WindSpeedMPH,WindSpeedGustMPH,Humidity,HourlyPrecipIn,Conditions,Clouds,dailyrainin,SoftwareType,DateUTC
2013-05-17 00:13:00,58.0,50.0,-100.00,WNW,300,3.0,-999.0,74,0.00,,,-99.99,,2013-05-17 04:13:00,
2013-05-17 00:23:00,58.0,50.0,-100.00,WNW,300,3.0,7.0,74,0.00,,,-99.99,,2013-05-17 04:23:00,
2013-05-17 00:34:00,58.0,50.0,-100.00,WNW,300,3.0,7.0,74,0.00,,,-99.99,,2013-05-17 04:34:00,
2013-05-17 00:43:00,58.0,50.0,-100.00,WNW,300,3.0,7.0,74,0.00,,,-99.99,,2013-05-17 04:43:00,
2013-05-17 01:22:00,56.0,50.0,-100.00,NNW,328,2.0,5.0,82,0.00,,,-99.99,,2013-05-17 05:22:00,
2013-05-17 01:32:00,56.0,50.0,-100.00,NNW,328,2.0,5.0,82,0.00,,,-99.99,,2013-05-17 05:32:00,
2013-05-17 01:43:00,56.0,50.0,-100.00,NNW,328,2.0,5.0,82,0.00,,,-99.99,,2013-05-17 05:43:00,
2013-05-17 02:22:00,54.0,50.0,-100.00,NNW,338,3.0,4.0,86,0.00,,,-99.99,,2013-05-17 06:22:00,
2013-05-17 02:32:00,54.0,50.0,-100.00,NNW,338,3.0,4.0,86,0.00,,,-99.99,,2013-05-17 06:32:00,
2013-05-17 02:42:00,54.0,50.0,-100.00,NNW,338,3.0,4.0,86,0.00,,,-99.99,,2013-05-17 06:42:00,
2013-05-17 03:21:00,56.0,48.0,-100.00,North,360,3.0,7.0,74,0.00,,,-99.99,,2013-05-17 07:21:00,
2013-05-17 03:32:00,56.0,48.0,-100.00,North,360,3.0,7.0,74,0.00,,,-99.99,,2013-05-17 07:32:00,
2013-05-17 03:43:00,56.0,48.0,-100.00,North,360,3.0,7.0,74,0.00,,,-99.99,,2013-05-17 07:43:00,
2013-05-17 04:23:00,55.0,48.0,-100.00,NNE,32,1.0,5.0,75,0.00,,,-99.99,,2013-05-17 08:23:00,
2013-05-17 04:34:00,55.0,48.0,-100.00,NNE,32,1.0,5.0,75,0.00,,,-99.99,,2013-05-17 08:34:00,
2013-05-17 04:42:00,55.0,48.0,-100.00,NNE,32,1.0,5.0,75,0.00,,,-99.99,,2013-05-17 08:42:00,
2013-05-17 05:23:00,52.0,47.0,-100.00,North,355,2.0,3.0,85,0.00,,,-99.99,,2013-05-17 09:23:00,
2013-05-17 05:33:00,52.0,47.0,-100.00,North,355,2.0,3.0,85,0.00,,,-99.99,,2013-05-17 09:33:00,
2013-05-17 05:42:00,52.0,47.0,-100.00,North,355,2.0,3.0,85,0.00,,,-99.99,,2013-05-17 09:42:00,
2013-05-17 06:23:00,50.0,46.0,-100.00,NNW,336,1.0,2.0,87,0.00,,,-99.99,,2013-05-17 10:23:00,
2013-05-17 06:33:00,50.0,46.0,-100.00,NNW,336,1.0,2.0,87,0.00,,,-99.99,,2013-05-17 10:33:00,
2013-05-17 06:42:00,50.0,46.0,-100.00,NNW,336,1.0,2.0,87,0.00,,,-99.99,,2013-05-17 10:42:00,
2013-05-17 07:23:00,54.0,46.0,-100.00,North,353,3.0,6.0,72,0.00,,,-99.99,,2013-05-17 11:23:00,
2013-05-17 07:34:00,54.0,46.0,-100.00,North,353,3.0,6.0,72,0.00,,,-99.99,,2013-05-17 11:34:00,
2013-05-17 07:42:00,54.0,46.0,-100.00,North,353,3.0,6.0,72,0.00,,,-99.99,,2013-05-17 11:42:00,
2013-05-17 08:23:00,59.0,44.0,-100.00,North,352,6.0,13.0,57,0.00,,,-99.99,,2013-05-17 12:23:00,
2013-05-17 08:33:00,59.0,44.0,-100.00,North,352,6.0,13.0,57,0.00,,,-99.99,,2013-05-17 12:33:00,
2013-05-17 08:43:00,59.0,44.0,-100.00,North,352,6.0,13.0,57,0.00,,,-99.99,,2013-05-17 12:43:00,
2013-05-17 09:23:00,60.0,43.0,-100.00,North,4,6.0,13.0,54,0.00,,,-99.99,,2013-05-17 13:23:00,
2013-05-17 09:33:00,60.0,43.0,-100.00,North,4,6.0,13.0,54,0.00,,,-99.99,,2013-05-17 13:33:00,
2013-05-17 09:42:00,60.0,43.0,-100.00,North,4,6.0,13.0,54,0.00,,,-99.99,,2013-05-17 13:42:00,
2013-05-17 10:13:00,61.0,42.0,-100.00,NNW,336,8.0,-999.0,50,0.00,,,-99.99,,2013-05-17 14:13:00,
2013-05-17 10:22:00,61.0,42.0,-100.00,NNW,336,8.0,15.0,50,0.00,,,-99.99,,2013-05-17 14:22:00,
2013-05-17 10:34:00,61.0,42.0,-100.00,NNW,336,8.0,15.0,50,0.00,,,-99.99,,2013-05-17 14:34:00,
2013-05-17 10:43:00,61.0,42.0,-100.00,NNW,336,8.0,15.0,50,0.00,,,-99.99,,2013-05-17 14:43:00,
2013-05-17 10:45:00,62.0,42.0,-100.00,NNW,348,5.0,13.0,47,0.00,,,-99.99,,2013-05-17 14:45:00,
2013-05-17 11:25:00,62.0,42.0,-100.00,NNW,348,5.0,13.0,47,0.00,,,-99.99,,2013-05-17 15:25:00,
2013-05-17 11:37:00,62.0,42.0,-100.00,NNW,348,5.0,13.0,47,0.00,,,-99.99,,2013-05-17 15:37:00,
2013-05-17 11:45:00,63.0,41.0,-100.00,NNE,27,5.0,12.0,45,0.00,,,-99.99,,2013-05-17 15:45:00,
2013-05-17 12:26:00,63.0,41.0,-100.00,NNE,27,5.0,12.0,45,0.00,,,-99.99,,2013-05-17 16:26:00,
2013-05-17 12:37:00,63.0,41.0,-100.00,NNE,27,5.0,12.0,45,0.00,,,-99.99,,2013-05-17 16:37:00,
2013-05-17 12:45:00,63.0,40.0,-100.00,NNE,22,4.0,11.0,43,0.00,,,-99.99,,2013-05-17 16:45:00,
2013-05-17 13:30:00,63.0,40.0,-100.00,NNE,22,4.0,11.0,43,0.00,,,-99.99,,2013-05-17 17:30:00,
2013-05-17 13:40:00,63.0,-99.9,-100.00,NNE,22,4.0,11.0,43,0.00,,,-99.99,,2013-05-17 17:40:00,
2013-05-17 13:45:00,-999.0,-99.9,-100.00,NNE,15,4.0,15.0,41,0.00,,,-99.99,,2013-05-17 17:45:00,
2013-05-17 14:30:00,64.0,40.0,-100.00,NNE,15,4.0,15.0,41,0.00,,,-99.99,,2013-05-17 18:30:00,
2013-05-17 14:40:00,64.0,-99.9,-100.00,NNE,15,4.0,15.0,41,0.00,,,-99.99,,2013-05-17 18:40:00,
2013-05-17 14:45:00,64.0,40.0,-100.00,NNE,29,3.0,10.0,41,0.00,,,-99.99,,2013-05-17 18:45:00,
2013-05-17 15:30:00,64.0,40.0,-100.00,NNE,29,3.0,10.0,41,0.00,,,-99.99,,2013-05-17 19:30:00,
2013-05-17 15:40:00,64.0,40.0,-100.00,NNE,29,3.0,10.0,41,0.00,,,-99.99,,2013-05-17 19:40:00,
2013-05-17 15:45:00,65.0,40.0,-100.00,NE,38,3.0,11.0,40,0.00,,,-99.99,,2013-05-17 19:45:00,
2013-05-17 16:30:00,65.0,40.0,-100.00,NE,38,3.0,11.0,40,0.00,,,-99.99,,2013-05-17 20:30:00,
2013-05-17 16:40:00,65.0,40.0,-100.00,NE,38,3.0,11.0,40,0.00,,,-99.99,,2013-05-17 20:40:00,
2013-05-17 16:45:00,65.0,41.0,-100.00,NNE,27,4.0,10.0,42,0.00,,,-99.99,,2013-05-17 20:45:00,
2013-05-17 17:26:00,65.0,41.0,-100.00,NNE,27,4.0,10.0,42,0.00,,,-99.99,,2013-05-17 21:26:00,
2013-05-17 17:39:00,65.0,41.0,-100.00,NNE,27,4.0,10.0,42,0.00,,,-99.99,,2013-05-17 21:39:00,
2013-05-17 17:45:00,62.0,48.0,-100.00,SE,139,2.0,7.0,61,0.00,,,-99.99,,2013-05-17 21:45:00,
2013-05-17 18:28:00,62.0,48.0,-100.00,SE,139,2.0,7.0,61,0.00,,,-99.99,,2013-05-17 22:28:00,
2013-05-17 18:38:00,62.0,48.0,-100.00,SE,139,2.0,7.0,61,0.00,,,-99.99,,2013-05-17 22:38:00,
2013-05-17 18:45:00,59.0,47.0,-100.00,SSE,158,2.0,5.0,64,0.00,,,-99.99,,2013-05-17 22:45:00,
2013-05-17 19:23:00,59.0,47.0,-100.00,SSE,158,2.0,5.0,64,0.00,,,-99.99,,2013-05-17 23:23:00,
2013-05-17 19:37:00,59.0,47.0,-100.00,SSE,158,2.0,5.0,64,0.00,,,-99.99,,2013-05-17 23:37:00,
2013-05-17 19:45:00,57.0,47.0,-100.00,SSE,158,2.0,8.0,68,0.00,,,-99.99,,2013-05-17 23:45:00,
2013-05-17 20:22:00,57.0,47.0,-100.00,SSE,158,2.0,8.0,68,0.00,,,-99.99,,2013-05-18 00:22:00,
2013-05-17 20:34:00,57.0,47.0,-100.00,SSE,158,2.0,8.0,68,0.00,,,-99.99,,2013-05-18 00:34:00,
2013-05-17 21:24:00,56.0,47.0,-100.00,SW,223,2.0,5.0,73,0.00,,,-99.99,,2013-05-18 01:24:00,
2013-05-17 21:32:00,56.0,47.0,-100.00,SW,223,2.0,5.0,73,0.00,,,-99.99,,2013-05-18 01:32:00,
2013-05-17 21:43:00,56.0,47.0,-100.00,SW,223,2.0,5.0,73,0.00,,,-99.99,,2013-05-18 01:43:00,
2013-05-17 22:23:00,54.0,47.0,-100.00,WSW,258,1.0,3.0,77,0.00,,,-99.99,,2013-05-18 02:23:00,
2013-05-17 22:32:00,54.0,47.0,-100.00,WSW,258,1.0,3.0,77,0.00,,,-99.99,,2013-05-18 02:32:00,
2013-05-17 22:42:00,54.0,47.0,-100.00,WSW,258,1.0,3.0,77,0.00,,,-99.99,,2013-05-18 02:42:00,
2013-05-17 23:12:00,53.0,48.0,-100.00,SSW,209,0.0,-999.0,83,0.00,,,-99.99,,2013-05-18 03:12:00,
2013-05-17 23:23:00,53.0,48.0,-100.00,SSW,209,0.0,1.0,83,0.00,,,-99.99,,2013-05-18 03:23:00,
2013-05-17 23:33:00,53.0,48.0,-100.00,SSW,209,0.0,1.0,83,0.00,,,-99.99,,2013-05-18 03:33:00,
2013-05-17 23:43:00,53.0,48.0,-100.00,SSW,209,0.0,1.0,83,0.00,,,-99.99,,2013-05-18 03:43:00,